Regional Weather Roundup
Issued by NWS

Home | Current Version | Previous Version | Text Only | Print | Product List | Glossary On
Versions: 1 2 3 4 5 6 7 8 9 10 11 12 13 14 15 16 17 18 19 20 21 22 23 24 25 26 27 28 29 30 31 32 33 34 35 36 37 38 39 40 41 42 43 44 45 46 47 48 49 50
000
ASUS42 KTBW 281310
RWRFL
FLORIDA REGIONAL WEATHER ROUNDUP
NATIONAL WEATHER SERVICE TAMPA BAY RUSKIN FL
900 AM EDT THU AUG 28 2014

NOTE: "FAIR" INDICATES FEW OR NO CLOUDS BELOW 12,000 FEET WITH NO
SIGNIFICANT WEATHER AND/OR OBSTRUCTIONS TO VISIBILITY.


FLZ001>010-012>015-112-114-115-281400-
PANHANDLE FLORIDA

CITY           SKY/WX    TMP DP  RH WIND       PRES   REMARKS
PENSACOLA      PTSUNNY   78  72  81 N6        30.01S
PENSACOLA NAS  PTSUNNY   79  74  84 N3        30.00S
MILTON NAS     PTSUNNY   74  70  87 NE3       30.02R
CRESTVIEW      MOSUNNY   73  70  90 CALM      30.03S
DUKE FIELD     FAIR      74  73  96 VRB1      30.02R
VALPARAISO     PTSUNNY   78  71  78 N2        30.01R
MARY ESTHER    PTSUNNY   76  69  79 N3        30.00S
TRI COUNTY     HVY RAIN  74  71  91 CALM      30.03S
PANAMA CITY    FAIR      78  71  79 CALM      30.01R
TYNDALL AFB    MOSUNNY   80  76  87 NE6       30.02R
APALACHICOLA   MOSUNNY   78  72  81 NE7       30.01R

STATION/POSITION SKY/WX   TEMP    WIND        PRES    WAVE   SWELL
                          AIR SEA DIR/SP/G            HT/PER HT/PER
                          (F)     (DEG/KT/KT) (MB)    (FT/S) (FT/S)
30.1N   87.6W              82 85   30/ 10/ 12 1015.9R   2/ 6   2/ 6
29.2N   88.2W              84 85   80/ 10/ 12 1015.4R
28.8N   86.0W              85 86   50/ 12/ 16 1015.1R   2/ 4
PANAMA CITY BEAC           77 84   30/  5/  6 1016.1R
CAPE SAN BLAS    NOT AVBL
TOWER C                    84     110/  9/  9 1015.9R
28.5N   84.5W              83 86  120/ 14/ 16 1015.2R   3/ 5

$$
FLZ011-016>038-118-127-128-134-139-239-281400-
NORTH FLORIDA

CITY           SKY/WX    TMP DP  RH WIND       PRES   REMARKS
MARIANNA       SUNNY     74  72  93 NE3       30.02S
TALLAHASSEE    MOSUNNY   79  69  71 CALM      30.03R
PERRY          SUNNY     72  68  88 CALM      30.04S
CROSS CITY       N/A     76  70  82 CALM      30.02R
LAKE CITY      FAIR      72  70  94 CALM      30.04S
GAINESVILLE    SUNNY     75  70  84 CALM      30.03R
MAYPORT NAS    MOSUNNY   76  68  76 VRB5      30.03S
JACKSONVILLE   MOSUNNY   73  68  84 N3        30.03S
JAX NAS        MOSUNNY   78  68  71 N6        30.04R
JAX CRAIG      SUNNY     76  68  76 N6        30.03S
JAX CECIL      SUNNY     70  66  88 CALM      30.03S
FERNANDINA BEA FAIR      77  68  73 NW5       30.02S
ST AUGUSTINE   SUNNY     77  70  79 NW6       30.04R

STATION/POSITION SKY/WX   TEMP    WIND        PRES    WAVE   SWELL
                          AIR SEA DIR/SP/G            HT/PER HT/PER
                          (F)     (DEG/KT/KT) (MB)    (FT/S) (FT/S)
SHELL POINT                73      30/  3/  5   N/A
KEATON BEACH               76      80/  4/  4 1017.0R
CEDAR KEY                  77      60/  5/  6 1016.6R
FERNANDINA                 75 82  320/  4/  6 1016.6R
30.7N   81.3W                 83                N/A     3/11   2/11
MAYPORT                    74 82  330/  5/  7   N/A
31.4N   80.9W              81 84   CALM  /  2 1016.9R   4/10   3/10
ST AUGUSTINE               76     350/  5/  6 1017.7R

$$
FLZ040-043>046-052-053-057-058-063-144-281400-
INTERIOR CENTRAL FLORIDA

CITY           SKY/WX    TMP DP  RH WIND       PRES   REMARKS
OCALA          SUNNY     73  70  88 CALM      30.03R
LEESBURG       SUNNY     81  73  76 SE3       30.03S
SANFORD        SUNNY     81  70  69 NE3       30.02R
ORLANDO EXEC   SUNNY     82  74  76 CALM      30.02R
ORLANDO INTL   SUNNY     80  74  81 CALM      30.02S
KISSIMMEE      SUNNY     81  75  83 CALM      30.03R
WINTER HAVEN   SUNNY     80  74  81 E6        30.03S
LAKELAND       SUNNY     81  75  83 CALM      30.02S
BARTOW         MOSUNNY   79  75  89 E6        30.03R
OKEECHOBEE       N/A     77  75  94 MISG      30.01S

$$
FLZ041-047-054-059-064-141-147-281400-
EAST CENTRAL FLORIDA

CITY           SKY/WX    TMP DP  RH WIND       PRES   REMARKS
ORMOND BEACH   SUNNY     75  72  88 CALM      30.03R
DAYTONA BEACH  MOSUNNY   80  71  74 NE3       30.02S
DELAND         SUNNY     77  70  78 CALM      30.03F
NEW SMYRNA BEA SUNNY     79  73  83 CALM      30.02S
JFK SPACE CTR  SUNNY     82  76  81 CALM      30.02R
TITUSVILLE     SUNNY     81  75  83 CALM      30.02R
CAPE CANAVERAL SUNNY     83  76  79 VRB1      30.01R
PATRICK AFB    SUNNY     83  76  80 E2        30.01S
MELBOURNE      SUNNY     83  77  82 CALM      30.01R
VERO BEACH     MOSUNNY   82  75  79 CALM      30.01R
FT PIERCE      MOSUNNY   83  74  74 CALM      30.01R
STUART         PTSUNNY   82  75  78 VRB3      30.02R

STATION/POSITION SKY/WX   TEMP    WIND        PRES    WAVE   SWELL
                          AIR SEA DIR/SP/G            HT/PER HT/PER
                          (F)     (DEG/KT/KT) (MB)    (FT/S) (FT/S)
28.5N   80.2W              83 82  210/  2/  4 1016.3R
28.9N   78.5W              83 83  180/  6/  6 1016.8R   7/10   7/10
TRIDENT PIER               84 83   CALM  /  1 1015.9R
28.4N   80.5W                 82                N/A     4/11   2/11
27.6N   80.2W                 83                N/A     5/10   3/11

$$
FLZ050-056-061-142-242-148-248-149-249-151-251-155-255-
160-260-281400-
WEST CENTRAL FLORIDA

CITY           SKY/WX    TMP DP  RH WIND       PRES   REMARKS
CRYSTAL RIVER  PTSUNNY   79  70  73 CALM      30.02R
INVERNESS      FAIR      77  70  78 CALM      30.03R
BROOKSVILLE    SUNNY     79  73  82 E5        30.03R
ZEPHYRHILLS    FAIR      77  75  94 E3        30.03S
CLEARWATER     SUNNY     81  75  82 E9        30.00S
TAMPA INTL     MOSUNNY   81  73  76 E6        30.01S
TAMPA EXEC     SUNNY     81  73  78 E3        30.02R
MACDILL AFB    SUNNY     80  78  92 E10       30.01R
ST PETERSBURG    N/A     82  76  81 MISG      29.99S
SARASOTA       SUNNY     80  75  84 E7        29.98S
VENICE           N/A    N/A N/A N/A MISG        N/A

STATION/POSITION SKY/WX   TEMP    WIND        PRES    WAVE   SWELL
                          AIR SEA DIR/SP/G            HT/PER HT/PER
                          (F)     (DEG/KT/KT) (MB)    (FT/S) (FT/S)
CEDAR KEY                  77      60/  5/  6 1016.6R
28.5N   84.5W              83 86  120/ 14/ 16 1015.2R   3/ 5
27.3N   84.3W                 87                N/A     3/ 5
CLEARWATER BEACH           81 85   90/  7/ 10 1015.6R
MIDDLE TAMPA BAY           78     100/ 10/ 12 1016.1S
VENICE                     81 87   70/  9/ 12 1014.8F

$$
FLZ066-069-070-075>078-162-262-165-265-281400-
SOUTHWEST FLORIDA AND KEYS

CITY           SKY/WX    TMP DP  RH WIND       PRES   REMARKS
PUNTA GORDA    MOSUNNY   81  75  82 E7        30.00S
FT MYERS       CLOUDY    78  74  87 E8        29.97S
SOUTHWEST INTL CLOUDY    81  74  79 E9        29.98S
NAPLES         PTSUNNY   82  75  79 E9        29.97S
MARCO ISLAND   PTSUNNY   79  79 100 E8        29.98R
MARATHON       CLOUDY    85  78  80 S6        29.97R HX  96
KEY WEST NAS   MOSUNNY   84  77  79 S9        29.95S
KEY WEST INTL  MOSUNNY   85  76  74 S9        29.95S

STATION/POSITION SKY/WX   TEMP    WIND        PRES    WAVE   SWELL
                          AIR SEA DIR/SP/G            HT/PER HT/PER
                          (F)     (DEG/KT/KT) (MB)    (FT/S) (FT/S)
VENICE                     81 87   70/  9/ 12 1014.8F
NAPLES                     81     100/  5/  8 1015.4S
DRY TORTUGAS               85     190/ 15/ 16 1013.9R
NW FL BAY                  84     240/ 15/ 18 1015.2R
SAND KEY                   84     200/ 12/ 14 1014.3R
SOMBRERO KEY               84     200/ 14/ 15 1015.4R
LONG KEY                   84 85  210/ 16/ 17 1015.7R
MOLASSES REEF              84 87  220/ 14/ 16 1015.2R

$$
FLZ067-068-071>074-168-172>174-281400-
SOUTHEAST FLORIDA

CITY           SKY/WX    TMP DP  RH WIND       PRES   REMARKS
W PALM BEACH   PTSUNNY   86  74  67 E7        29.98S
FT LAUDER-EXEC MOSUNNY   83  77  82 CALM      29.99R
FT LAUDERDALE  MOSUNNY   85  76  74 SW3       29.99R
POMPANO BEACH  MOSUNNY   86  74  67 SE3       29.99R
PEMBROKE PINES SUNNY     84  77  79 SW6       30.00S
OPA LOCKA      SUNNY     84  76  76 SW8       30.00
MIAMI          PTSUNNY   82  75  79 SW10      30.00R
WEST KENDALL   CLOUDY    82  76  81 SW9       30.00R
HOMESTEAD      MOSUNNY   77  75  94 SW1       30.00S

STATION/POSITION SKY/WX   TEMP    WIND        PRES    WAVE   SWELL
                          AIR SEA DIR/SP/G            HT/PER HT/PER
                          (F)     (DEG/KT/KT) (MB)    (FT/S) (FT/S)
PORT EVERGLADES            85     200/  5/  7 1015.5
VIRGINIA KEY               82 86  260/ 13/ 15   N/A
LAKE WORTH                 84 86   70/  5/  6 1015.3S
FOWEY ROCKS                81 87  260/ 30/ 33 1015.9R
SETTLEMENT POINT           84      90/  7/  8 1016.5R

$$




USA.gov is the U.S. government's official web portal to all federal, state and local government web resources and services.